Location: Unspecified
(0.0000°N, 0.0000°E)
Time: 06:47:09
(UTC+02:00)

Cosmos 1933 - Visible Passes

Search period start: 27 July 2017 00:00
Search period end: 06 August 2017 00:00
Orbit: 548 x 565 km, 82.5° (Epoch: 26 July)

Date Brightness Start Highest point End Pass type
(mag) Time Alt. Az. Time Alt. Az. Time Alt. Az.
27 Jul 5.0 22:09:43 10° NNW 22:12:03 30° NW 22:12:03 30° NW visible
28 Jul 4.9 22:07:39 10° NNW 22:10:47 34° WNW 22:10:47 34° WNW visible
29 Jul 5.0 22:05:38 10° NNW 22:09:10 30° W 22:09:35 29° WSW visible
30 Jul 5.5 22:03:40 10° NW 22:06:58 25° W 22:08:29 20° SW visible
31 Jul 5.8 22:01:45 10° NW 22:04:46 21° W 22:07:31 11° SW visible
01 Aug 6.1 21:59:56 10° NW 22:02:35 17° W 22:05:15 10° SW visible
02 Aug 6.3 21:58:14 10° WNW 22:00:23 14° W 22:02:33 10° SW visible
03 Aug 6.5 21:56:47 10° WNW 21:58:11 12° W 21:59:36 10° WSW visible
